| time (UTC) | temp F | wind direction | speed MPH | gust MPH | rain 1hr in | rain 24hr in | rain mn in | humidity % | barometer mb |
| 20260508205739 | 62 | 0 | 0.0 | 0.0 | 0.00 | 0.00 | 0.00 | 40 | 999.1 |
| 20260508205230 | 62 | 0 | 0.0 | 2.0 | 0.00 | 0.00 | 0.00 | 39 | 999.1 |
| 20260508204730 | 63 | 0 | 0.0 | 2.0 | 0.00 | 0.00 | 0.00 | 39 | 999.3 |
| 20260508204230 | 63 | 0 | 0.0 | 2.0 | 0.00 | 0.00 | 0.00 | 39 | 999.3 |
| 20260508203730 | 63 | 0 | 0.0 | 1.0 | 0.00 | 0.00 | 0.00 | 39 | 999.3 |
| 20260508203230 | 63 | 0 | 0.0 | 1.0 | 0.00 | 0.00 | 0.00 | 39 | 999.4 |
| 20260508202730 | 63 | 0 | 0.0 | 1.0 | 0.00 | 0.00 | 0.00 | 38 | 999.5 |
| 20260508202230 | 63 | 0 | 0.0 | 1.0 | 0.00 | 0.00 | 0.00 | 38 | 999.4 |
| 20260508201730 | 63 | 0 | 0.0 | 2.0 | 0.00 | 0.00 | 0.00 | 36 | 999.5 |
| 20260508201230 | 63 | 0 | 0.0 | 2.0 | 0.00 | 0.00 | 0.00 | 36 | 999.6 |
| 20260508200730 | 63 | 0 | 0.0 | 2.0 | 0.00 | 0.00 | 0.00 | 37 | 999.7 |
| 20260508200230 | 64 | 0 | 0.0 | 1.0 | 0.00 | 0.00 | 0.00 | 37 | 1000.0 |
| 20260508195730 | 64 | 0 | 0.0 | 2.0 | 0.00 | 0.00 | 0.00 | 38 | 1000.1 |
| 20260508195230 | 63 | 0 | 0.0 | 3.0 | 0.00 | 0.00 | 0.00 | 37 | 1000.1 |
| 20260508194730 | 63 | 0 | 0.0 | 3.0 | 0.00 | 0.00 | 0.00 | 36 | 1000.1 |
| 20260508194230 | 64 | 0 | 0.0 | 2.0 | 0.00 | 0.00 | 0.00 | 35 | 1000.2 |
| 20260508193730 | 64 | 0 | 0.0 | 2.0 | 0.00 | 0.00 | 0.00 | 36 | 1000.4 |
| 20260508193230 | 63 | 0 | 0.0 | 2.0 | 0.00 | 0.00 | 0.00 | 39 | 1000.2 |
| 20260508192730 | 63 | 0 | 0.0 | 1.0 | 0.00 | 0.00 | 0.00 | 38 | 1000.3 |
| 20260508192230 | 63 | 0 | 0.0 | 2.0 | 0.00 | 0.00 | 0.00 | 37 | 1000.4 |
| 20260508191730 | 63 | 0 | 0.0 | 3.0 | 0.00 | 0.00 | 0.00 | 37 | 1000.5 |
| 20260508191230 | 63 | 0 | 0.0 | 3.0 | 0.00 | 0.00 | 0.00 | 37 | 1000.7 |
| 20260508190730 | 63 | 0 | 0.0 | 0.0 | 0.00 | 0.00 | 0.00 | 38 | 1000.7 |
| 20260508190230 | 63 | 0 | 0.0 | 0.0 | 0.00 | 0.00 | 0.00 | 37 | 1000.7 |
| 20260508184732 | 63 | 0 | 0.0 | 3.0 | 0.00 | 0.00 | 0.00 | 41 | 1001.0 |
| 20260508184232 | 63 | 0 | 0.0 | 3.0 | 0.00 | 0.00 | 0.00 | 39 | 1001.0 |
| 20260508183732 | 62 | 0 | 0.0 | 0.0 | 0.00 | 0.00 | 0.00 | 43 | 1001.0 |
| 20260508183232 | 61 | 0 | 0.0 | 0.0 | 0.00 | 0.00 | 0.00 | 42 | 1001.1 |
| 20260508182355 | 60 | 0 | 0.0 | 2.0 | 0.00 | 0.00 | 0.00 | 43 | 1001.4 |
| 20260508181855 | 60 | 0 | 0.0 | 2.0 | 0.00 | 0.00 | 0.00 | 42 | 1001.3 |
| 20260508181355 | 60 | 0 | 0.0 | 4.0 | 0.00 | 0.00 | 0.00 | 41 | 1001.4 |
| 20260508180855 | 61 | 0 | 0.0 | 4.0 | 0.00 | 0.00 | 0.00 | 40 | 1001.3 |
| 20260508180356 | 61 | 0 | 0.0 | 3.0 | 0.00 | 0.00 | 0.00 | 40 | 1001.3 |
| 20260508175855 | 61 | 0 | 0.0 | 3.0 | 0.00 | 0.00 | 0.00 | 42 | 1001.4 |
| 20260508175355 | 60 | 0 | 0.0 | 5.0 | 0.00 | 0.00 | 0.00 | 41 | 1001.3 |
| 20260508174855 | 60 | 0 | 0.0 | 5.0 | 0.00 | 0.00 | 0.00 | 40 | 1001.5 |
| 20260508174355 | 61 | 0 | 0.0 | 1.0 | 0.00 | 0.00 | 0.00 | 42 | 1001.7 |
| 20260508173856 | 61 | 0 | 0.0 | 1.0 | 0.00 | 0.00 | 0.00 | 41 | 1001.8 |
| 20260508173355 | 60 | 0 | 0.0 | 0.0 | 0.00 | 0.00 | 0.00 | 42 | 1001.8 |
| 20260508172855 | 60 | 0 | 0.0 | 1.0 | 0.00 | 0.00 | 0.00 | 41 | 1001.9 |
| 20260508172355 | 60 | 0 | 0.0 | 1.0 | 0.00 | 0.00 | 0.00 | 41 | 1002.0 |
| 20260508171855 | 60 | 0 | 0.0 | 3.0 | 0.00 | 0.00 | 0.00 | 41 | 1002.2 |
| 20260508171355 | 60 | 0 | 0.0 | 3.0 | 0.00 | 0.00 | 0.00 | 39 | 1002.3 |
| 20260508170855 | 60 | 0 | 0.0 | 3.0 | 0.00 | 0.00 | 0.00 | 38 | 1002.3 |
| 20260508170358 | 61 | 0 | 0.0 | 3.0 | 0.00 | 0.00 | 0.00 | 37 | 1002.4 |
| 20260508165855 | 61 | 0 | 0.0 | 1.0 | 0.00 | 0.00 | 0.00 | 37 | 1002.4 |
| 20260508165355 | 60 | 0 | 0.0 | 2.0 | 0.00 | 0.00 | 0.00 | 39 | 1002.5 |
| 20260508164855 | 60 | 0 | 0.0 | 3.0 | 0.00 | 0.00 | 0.00 | 40 | 1002.7 |
| 20260508164355 | 60 | 0 | 0.0 | 3.0 | 0.00 | 0.00 | 0.00 | 39 | 1002.7 |
| 20260508163855 | 59 | 0 | 0.0 | 1.0 | 0.00 | 0.00 | 0.00 | 38 | 1002.8 |
| 20260508163355 | 59 | 0 | 0.0 | 1.0 | 0.00 | 0.00 | 0.00 | 42 | 1002.9 |
| 20260508162855 | 60 | 0 | 0.0 | 1.0 | 0.00 | 0.00 | 0.00 | 41 | 1002.8 |
| 20260508162355 | 59 | 0 | 0.0 | 4.0 | 0.00 | 0.00 | 0.00 | 42 | 1002.8 |
| 20260508161856 | 59 | 0 | 0.0 | 4.0 | 0.00 | 0.00 | 0.00 | 45 | 1002.9 |
| 20260508161355 | 58 | 0 | 0.0 | 2.0 | 0.00 | 0.00 | 0.00 | 45 | 1002.9 |
| 20260508160855 | 58 | 0 | 0.0 | 1.0 | 0.00 | 0.00 | 0.00 | 44 | 1003.0 |
| 20260508160355 | 58 | 0 | 0.0 | 1.0 | 0.00 | 0.00 | 0.00 | 46 | 1003.0 |
| 20260508155407 | 58 | 0 | 0.0 | 2.0 | 0.00 | 0.00 | 0.00 | 47 | 1003.2 |
| 20260508154855 | 57 | 0 | 0.0 | 1.0 | 0.00 | 0.00 | 0.00 | 48 | 1003.2 |
| 20260508154355 | 57 | 0 | 0.0 | 1.0 | 0.00 | 0.00 | 0.00 | 48 | 1003.2 |
| 20260508153855 | 57 | 0 | 0.0 | 1.0 | 0.00 | 0.00 | 0.00 | 48 | 1003.2 |
| 20260508153355 | 57 | 0 | 0.0 | 0.0 | 0.00 | 0.00 | 0.00 | 49 | 1003.2 |
| 20260508152855 | 57 | 0 | 0.0 | 0.0 | 0.00 | 0.00 | 0.00 | 49 | 1003.3 |
| 20260508152356 | 57 | 0 | 0.0 | 1.0 | 0.00 | 0.00 | 0.00 | 47 | 1003.5 |
| 20260508151855 | 56 | 0 | 0.0 | 1.0 | 0.00 | 0.00 | 0.00 | 52 | 1003.4 |
| 20260508151355 | 56 | 0 | 0.0 | 1.0 | 0.00 | 0.00 | 0.00 | 51 | 1003.4 |
| 20260508150855 | 56 | 0 | 0.0 | 1.0 | 0.00 | 0.00 | 0.00 | 51 | 1003.5 |
| 20260508150355 | 56 | 0 | 0.0 | 0.0 | 0.00 | 0.00 | 0.00 | 54 | 1003.5 |
| 20260508145355 | 55 | 0 | 0.0 | 1.0 | 0.00 | 0.00 | 0.00 | 55 | 1003.5 |
| 20260508144855 | 55 | 0 | 0.0 | 1.0 | 0.00 | 0.00 | 0.00 | 54 | 1003.6 |
| 20260508144355 | 55 | 0 | 0.0 | 1.0 | 0.00 | 0.00 | 0.00 | 57 | 1003.6 |
| 20260508143855 | 55 | 0 | 0.0 | 0.0 | 0.00 | 0.00 | 0.00 | 57 | 1003.6 |
| 20260508143355 | 54 | 0 | 0.0 | 0.0 | 0.00 | 0.00 | 0.00 | 57 | 1003.7 |
| 20260508142355 | 54 | 0 | 0.0 | 0.0 | 0.00 | 0.00 | 0.00 | 58 | 1003.8 |
| 20260508141855 | 54 | 0 | 0.0 | 0.0 | 0.00 | 0.00 | 0.00 | 58 | 1003.8 |
| 20260508141356 | 54 | 0 | 0.0 | 0.0 | 0.00 | 0.00 | 0.00 | 59 | 1003.8 |
| 20260508140855 | 54 | 0 | 0.0 | 0.0 | 0.00 | 0.00 | 0.00 | 61 | 1003.9 |
| 20260508140355 | 53 | 0 | 0.0 | 0.0 | 0.00 | 0.00 | 0.00 | 62 | 1003.9 |
| 20260508135855 | 53 | 0 | 0.0 | 0.0 | 0.00 | 0.00 | 0.00 | 62 | 1004.0 |
| 20260508135355 | 52 | 0 | 0.0 | 0.0 | 0.00 | 0.00 | 0.00 | 63 | 1004.0 |
| 20260508134855 | 52 | 0 | 0.0 | 0.0 | 0.00 | 0.00 | 0.00 | 64 | 1004.0 |
| 20260508134355 | 52 | 0 | 0.0 | 0.0 | 0.00 | 0.00 | 0.00 | 65 | 1004.0 |
| 20260508133855 | 51 | 0 | 0.0 | 0.0 | 0.00 | 0.00 | 0.00 | 66 | 1004.0 |
| 20260508133355 | 51 | 0 | 0.0 | 0.0 | 0.00 | 0.00 | 0.00 | 68 | 1004.1 |
| 20260508132855 | 50 | 0 | 0.0 | 0.0 | 0.00 | 0.00 | 0.00 | 67 | 1004.1 |
| 20260508132355 | 50 | 0 | 0.0 | 0.0 | 0.00 | 0.00 | 0.00 | 68 | 1004.1 |
| 20260508131856 | 50 | 0 | 0.0 | 0.0 | 0.00 | 0.00 | 0.00 | 69 | 1004.1 |
| 20260508131355 | 50 | 0 | 0.0 | 0.0 | 0.00 | 0.00 | 0.00 | 73 | 1004.2 |
| 20260508130855 | 49 | 0 | 0.0 | 0.0 | 0.00 | 0.00 | 0.00 | 75 | 1004.1 |
| 20260508130355 | 48 | 0 | 0.0 | 0.0 | 0.00 | 0.00 | 0.00 | 77 | 1004.1 |
| 20260508125855 | 47 | 0 | 0.0 | 0.0 | 0.00 | 0.00 | 0.00 | 79 | 1004.1 |
| 20260508125355 | 47 | 0 | 0.0 | 0.0 | 0.00 | 0.00 | 0.00 | 80 | 1004.1 |
| 20260508124855 | 46 | 0 | 0.0 | 0.0 | 0.00 | 0.00 | 0.00 | 80 | 1004.1 |
| 20260508124355 | 46 | 0 | 0.0 | 0.0 | 0.00 | 0.00 | 0.00 | 83 | 1004.1 |
| 20260508123855 | 45 | 0 | 0.0 | 0.0 | 0.00 | 0.00 | 0.00 | 84 | 1004.0 |
| 20260508123355 | 45 | 0 | 0.0 | 0.0 | 0.00 | 0.00 | 0.00 | 84 | 1004.0 |
| 20260508122855 | 44 | 0 | 0.0 | 0.0 | 0.00 | 0.00 | 0.00 | 85 | 1003.9 |
| 20260508122354 | 43 | 0 | 0.0 | 0.0 | 0.00 | 0.00 | 0.00 | 85 | 1003.8 |
| 20260508121855 | 43 | 0 | 0.0 | 0.0 | 0.00 | 0.00 | 0.00 | 86 | 1003.8 |
| 20260508121355 | 43 | 0 | 0.0 | 1.0 | 0.00 | 0.00 | 0.00 | 86 | 1003.8 |
| 20260508120855 | 42 | 0 | 0.0 | 1.0 | 0.00 | 0.00 | 0.00 | 86 | 1003.8 |
| 20260508120354 | 42 | 0 | 0.0 | 0.0 | 0.00 | 0.00 | 0.00 | 86 | 1003.7 |
| 20260508115855 | 41 | 0 | 0.0 | 0.0 | 0.00 | 0.00 | 0.00 | 86 | 1003.7 |
| 20260508115354 | 41 | 0 | 0.0 | 0.0 | 0.00 | 0.00 | 0.00 | 86 | 1003.6 |
| 20260508114855 | 41 | 0 | 0.0 | 0.0 | 0.00 | 0.00 | 0.00 | 86 | 1003.6 |
| 20260508114355 | 41 | 0 | 0.0 | 0.0 | 0.00 | 0.00 | 0.00 | 86 | 1003.6 |
| 20260508113510 | 41 | 0 | 0.0 | 0.0 | 0.00 | 0.00 | 0.00 | 85 | 1003.4 |
| 20260508113010 | 41 | 0 | 0.0 | 0.0 | 0.00 | 0.00 | 0.00 | 85 | 1003.4 |
| 20260508112511 | 41 | 0 | 0.0 | 0.0 | 0.00 | 0.00 | 0.00 | 85 | 1003.3 |
| 20260508112010 | 41 | 0 | 0.0 | 0.0 | 0.00 | 0.00 | 0.00 | 85 | 1003.3 |
| 20260508111510 | 41 | 0 | 0.0 | 0.0 | 0.00 | 0.00 | 0.00 | 85 | 1003.2 |
| 20260508111010 | 40 | 0 | 0.0 | 0.0 | 0.00 | 0.00 | 0.00 | 84 | 1003.1 |
| 20260508110510 | 40 | 0 | 0.0 | 0.0 | 0.00 | 0.00 | 0.00 | 84 | 1003.1 |
| 20260508110010 | 40 | 0 | 0.0 | 0.0 | 0.00 | 0.00 | 0.00 | 84 | 1003.0 |
| 20260508105511 | 40 | 0 | 0.0 | 0.0 | 0.00 | 0.00 | 0.00 | 84 | 1003.1 |
| 20260508105011 | 41 | 0 | 0.0 | 0.0 | 0.00 | 0.00 | 0.00 | 84 | 1003.1 |
| 20260508104510 | 41 | 0 | 0.0 | 0.0 | 0.00 | 0.00 | 0.00 | 84 | 1003.1 |
| 20260508104010 | 41 | 0 | 0.0 | 0.0 | 0.00 | 0.00 | 0.00 | 83 | 1003.1 |
| 20260508103510 | 41 | 0 | 0.0 | 0.0 | 0.00 | 0.00 | 0.00 | 83 | 1003.0 |
| 20260508103010 | 41 | 0 | 0.0 | 0.0 | 0.00 | 0.00 | 0.00 | 83 | 1002.9 |
| 20260508102510 | 41 | 0 | 0.0 | 0.0 | 0.00 | 0.00 | 0.00 | 83 | 1002.9 |
| 20260508102010 | 41 | 0 | 0.0 | 0.0 | 0.00 | 0.00 | 0.00 | 82 | 1002.9 |
| 20260508101510 | 41 | 0 | 0.0 | 0.0 | 0.00 | 0.00 | 0.00 | 82 | 1002.9 |
| 20260508100513 | 41 | 0 | 0.0 | 0.0 | 0.00 | 0.00 | 0.00 | 82 | 1002.9 |
| 20260508100010 | 41 | 0 | 0.0 | 0.0 | 0.00 | 0.00 | 0.00 | 81 | 1002.9 |
| 20260508095510 | 42 | 0 | 0.0 | 0.0 | 0.00 | 0.00 | 0.00 | 81 | 1002.9 |
| 20260508095010 | 42 | 0 | 0.0 | 0.0 | 0.00 | 0.00 | 0.00 | 81 | 1002.9 |
| 20260508094510 | 42 | 0 | 0.0 | 0.0 | 0.00 | 0.00 | 0.00 | 81 | 1003.0 |
| 20260508094010 | 42 | 0 | 0.0 | 0.0 | 0.00 | 0.00 | 0.00 | 81 | 1003.0 |
| 20260508093510 | 42 | 0 | 0.0 | 0.0 | 0.00 | 0.00 | 0.00 | 81 | 1003.0 |
| 20260508093010 | 42 | 0 | 0.0 | 0.0 | 0.00 | 0.00 | 0.00 | 81 | 1003.0 |
| 20260508092510 | 42 | 0 | 0.0 | 0.0 | 0.00 | 0.00 | 0.00 | 81 | 1003.0 |
| 20260508092010 | 42 | 0 | 0.0 | 0.0 | 0.00 | 0.00 | 0.00 | 81 | 1002.9 |
| 20260508091510 | 42 | 0 | 0.0 | 0.0 | 0.00 | 0.00 | 0.00 | 81 | 1003.0 |
| 20260508091010 | 42 | 0 | 0.0 | 0.0 | 0.00 | 0.00 | 0.00 | 81 | 1003.1 |
| 20260508090541 | 42 | 0 | 0.0 | 0.0 | 0.00 | 0.00 | 0.00 | 81 | 1003.0 |
| 20260508090010 | 43 | 0 | 0.0 | 0.0 | 0.00 | 0.00 | 0.00 | 81 | 1003.1 |
| 20260508085510 | 43 | 0 | 0.0 | 0.0 | 0.00 | 0.00 | 0.00 | 80 | 1003.1 |
| 20260508085010 | 43 | 0 | 0.0 | 0.0 | 0.00 | 0.00 | 0.00 | 81 | 1003.0 |
| 20260508084510 | 43 | 0 | 0.0 | 0.0 | 0.00 | 0.00 | 0.00 | 80 | 1002.9 |
| 20260508084010 | 43 | 0 | 0.0 | 0.0 | 0.00 | 0.00 | 0.00 | 80 | 1002.9 |
| 20260508083510 | 43 | 0 | 0.0 | 0.0 | 0.00 | 0.00 | 0.00 | 80 | 1002.9 |
| 20260508083010 | 43 | 0 | 0.0 | 0.0 | 0.00 | 0.00 | 0.00 | 80 | 1003.0 |
| 20260508082510 | 43 | 0 | 0.0 | 0.0 | 0.00 | 0.00 | 0.00 | 80 | 1003.1 |
| 20260508082010 | 43 | 0 | 0.0 | 0.0 | 0.00 | 0.00 | 0.00 | 80 | 1003.1 |
| 20260508081510 | 43 | 0 | 0.0 | 0.0 | 0.00 | 0.00 | 0.00 | 80 | 1003.1 |
| 20260508081010 | 43 | 0 | 0.0 | 0.0 | 0.00 | 0.00 | 0.00 | 79 | 1003.2 |
| 20260508080510 | 43 | 0 | 0.0 | 0.0 | 0.00 | 0.00 | 0.00 | 79 | 1003.2 |
| 20260508080010 | 43 | 0 | 0.0 | 0.0 | 0.00 | 0.00 | 0.00 | 79 | 1003.1 |
| 20260508075510 | 43 | 0 | 0.0 | 1.0 | 0.00 | 0.00 | 0.00 | 79 | 1003.2 |
| 20260508075010 | 43 | 0 | 0.0 | 1.0 | 0.00 | 0.00 | 0.00 | 78 | 1003.2 |
| 20260508074510 | 43 | 0 | 0.0 | 0.0 | 0.00 | 0.00 | 0.00 | 78 | 1003.2 |
| 20260508074010 | 44 | 0 | 0.0 | 1.0 | 0.00 | 0.00 | 0.00 | 78 | 1003.2 |
| 20260508073510 | 44 | 0 | 0.0 | 1.0 | 0.00 | 0.00 | 0.00 | 78 | 1003.1 |
| 20260508073010 | 44 | 0 | 0.0 | 0.0 | 0.00 | 0.00 | 0.00 | 78 | 1003.3 |
| 20260508072510 | 44 | 0 | 0.0 | 0.0 | 0.00 | 0.00 | 0.00 | 78 | 1003.4 |
| 20260508071943 | 44 | 0 | 0.0 | 0.0 | 0.00 | 0.00 | 0.00 | 78 | 1003.5 |
| 20260508071404 | 44 | 0 | 0.0 | 0.0 | 0.00 | 0.00 | 0.00 | 78 | 1003.5 |
| 20260508065903 | 44 | 0 | 0.0 | 0.0 | 0.00 | 0.00 | 0.00 | 77 | 1003.5 |
| 20260508065403 | 44 | 0 | 0.0 | 0.0 | 0.00 | 0.00 | 0.00 | 77 | 1003.5 |
| 20260508064903 | 44 | 0 | 0.0 | 0.0 | 0.00 | 0.00 | 0.00 | 77 | 1003.5 |
| 20260508064403 | 44 | 0 | 0.0 | 0.0 | 0.00 | 0.00 | 0.00 | 77 | 1003.5 |
| 20260508063903 | 44 | 0 | 0.0 | 0.0 | 0.00 | 0.00 | 0.00 | 77 | 1003.4 |
| 20260508063240 | 44 | 0 | 0.0 | 0.0 | 0.00 | 0.00 | 0.00 | 77 | 1003.5 |
| 20260508062740 | 44 | 0 | 0.0 | 0.0 | 0.00 | 0.00 | 0.00 | 76 | 1003.4 |
| 20260508062242 | 44 | 0 | 0.0 | 0.0 | 0.00 | 0.00 | 0.00 | 76 | 1003.4 |
| 20260508061740 | 44 | 0 | 0.0 | 0.0 | 0.00 | 0.00 | 0.00 | 76 | 1003.5 |
| 20260508061240 | 44 | 0 | 0.0 | 0.0 | 0.00 | 0.00 | 0.00 | 76 | 1003.5 |
| 20260508060740 | 44 | 0 | 0.0 | 0.0 | 0.00 | 0.00 | 0.00 | 76 | 1003.6 |
| 20260508060240 | 44 | 0 | 0.0 | 0.0 | 0.00 | 0.00 | 0.00 | 76 | 1003.5 |
| 20260508055241 | 44 | 0 | 0.0 | 1.0 | 0.00 | 0.00 | 0.00 | 76 | 1003.6 |
| 20260508054740 | 44 | 0 | 0.0 | 1.0 | 0.00 | 0.00 | 0.00 | 76 | 1003.6 |
| 20260508054240 | 44 | 0 | 0.0 | 0.0 | 0.00 | 0.00 | 0.00 | 75 | 1003.7 |
| 20260508053741 | 44 | 0 | 0.0 | 0.0 | 0.00 | 0.00 | 0.00 | 75 | 1003.7 |
| 20260508053240 | 44 | 0 | 0.0 | 0.0 | 0.00 | 0.00 | 0.00 | 75 | 1003.6 |
| 20260508052740 | 44 | 0 | 0.0 | 0.0 | 0.00 | 0.00 | 0.00 | 75 | 1003.6 |
| 20260508052241 | 44 | 0 | 0.0 | 0.0 | 0.00 | 0.00 | 0.00 | 75 | 1003.5 |
| 20260508051740 | 44 | 0 | 0.0 | 0.0 | 0.00 | 0.00 | 0.00 | 74 | 1003.6 |
| 20260508051240 | 44 | 0 | 0.0 | 0.0 | 0.00 | 0.00 | 0.00 | 74 | 1003.6 |
| 20260508050740 | 44 | 0 | 0.0 | 0.0 | 0.00 | 0.00 | 0.00 | 74 | 1003.6 |
| 20260508050240 | 45 | 0 | 0.0 | 0.0 | 0.00 | 0.00 | 0.00 | 74 | 1003.6 |
| 20260508045742 | 45 | 0 | 0.0 | 0.0 | 0.00 | 0.00 | 0.00 | 74 | 1003.5 |
| 20260508045241 | 45 | 0 | 0.0 | 1.0 | 0.00 | 0.00 | 0.00 | 73 | 1003.6 |
| 20260508044240 | 45 | 0 | 0.0 | 0.0 | 0.00 | 0.00 | 0.00 | 73 | 1003.5 |
| 20260508043741 | 45 | 0 | 0.0 | 0.0 | 0.00 | 0.00 | 0.00 | 72 | 1003.5 |
| 20260508043240 | 45 | 0 | 0.0 | 0.0 | 0.00 | 0.00 | 0.00 | 72 | 1003.6 |
| 20260508042740 | 46 | 0 | 0.0 | 0.0 | 0.00 | 0.00 | 0.00 | 71 | 1003.5 |
| 20260508042240 | 46 | 0 | 0.0 | 0.0 | 0.00 | 0.00 | 0.00 | 71 | 1003.5 |
| 20260508041740 | 46 | 0 | 0.0 | 1.0 | 0.00 | 0.00 | 0.00 | 71 | 1003.6 |
| 20260508041240 | 46 | 0 | 0.0 | 1.0 | 0.00 | 0.00 | 0.00 | 71 | 1003.6 |
| 20260508040740 | 46 | 0 | 0.0 | 0.0 | 0.00 | 0.00 | 0.00 | 70 | 1003.5 |
| 20260508040240 | 47 | 0 | 0.0 | 0.0 | 0.00 | 0.00 | 0.00 | 70 | 1003.5 |
| 20260508035740 | 47 | 0 | 0.0 | 0.0 | 0.00 | 0.00 | 0.00 | 69 | 1003.5 |
| 20260508035240 | 47 | 0 | 0.0 | 0.0 | 0.00 | 0.00 | 0.00 | 68 | 1003.5 |
| 20260508034740 | 47 | 0 | 0.0 | 1.0 | 0.00 | 0.00 | 0.00 | 68 | 1003.5 |
| 20260508034240 | 48 | 0 | 0.0 | 1.0 | 0.00 | 0.00 | 0.00 | 68 | 1003.5 |
| 20260508033740 | 48 | 0 | 0.0 | 1.0 | 0.00 | 0.00 | 0.00 | 67 | 1003.5 |
| 20260508033240 | 48 | 0 | 0.0 | 0.0 | 0.00 | 0.00 | 0.00 | 67 | 1003.5 |
| 20260508032740 | 48 | 0 | 0.0 | 0.0 | 0.00 | 0.00 | 0.00 | 66 | 1003.4 |
| 20260508032059 | 48 | 0 | 0.0 | 0.0 | 0.00 | 0.00 | 0.00 | 66 | 1003.6 |
| 20260508031559 | 48 | 0 | 0.0 | 0.0 | 0.00 | 0.00 | 0.00 | 66 | 1003.5 |
| 20260508031059 | 48 | 0 | 0.0 | 0.0 | 0.00 | 0.00 | 0.00 | 65 | 1003.6 |
| 20260508030559 | 48 | 0 | 0.0 | 0.0 | 0.00 | 0.00 | 0.00 | 65 | 1003.6 |
| 20260508030059 | 48 | 0 | 0.0 | 1.0 | 0.00 | 0.00 | 0.00 | 65 | 1003.6 |
| 20260508025559 | 48 | 0 | 0.0 | 1.0 | 0.00 | 0.00 | 0.00 | 64 | 1003.8 |
| 20260508025059 | 48 | 0 | 0.0 | 0.0 | 0.00 | 0.00 | 0.00 | 63 | 1003.8 |
| 20260508024559 | 48 | 0 | 0.0 | 0.0 | 0.00 | 0.00 | 0.00 | 63 | 1003.8 |
| 20260508024059 | 48 | 0 | 0.0 | 0.0 | 0.00 | 0.00 | 0.00 | 63 | 1003.7 |
| 20260508023524 | 49 | 0 | 0.0 | 0.0 | 0.00 | 0.00 | 0.00 | 62 | 1003.9 |
| 20260508022912 | 49 | 0 | 0.0 | 0.0 | 0.00 | 0.00 | 0.00 | 61 | 1003.8 |
| 20260508022353 | 49 | 0 | 0.0 | 0.0 | 0.00 | 0.00 | 0.00 | 61 | 1003.7 |
| 20260508021540 | 49 | 0 | 0.0 | 0.0 | 0.00 | 0.00 | 0.00 | 61 | 1003.7 |
| 20260508021040 | 49 | 0 | 0.0 | 0.0 | 0.00 | 0.00 | 0.00 | 61 | 1003.7 |
| 20260508020355 | 49 | 0 | 0.0 | 0.0 | 0.00 | 0.00 | 0.00 | 62 | 1003.6 |
| 20260508015855 | 49 | 0 | 0.0 | 0.0 | 0.00 | 0.00 | 0.00 | 62 | 1003.5 |
| 20260508015355 | 49 | 0 | 0.0 | 0.0 | 0.00 | 0.00 | 0.00 | 61 | 1003.6 |
| 20260508014855 | 50 | 0 | 0.0 | 0.0 | 0.00 | 0.00 | 0.00 | 60 | 1003.7 |
| 20260508014355 | 50 | 0 | 0.0 | 2.0 | 0.00 | 0.00 | 0.00 | 60 | 1003.7 |
| 20260508013856 | 50 | 0 | 0.0 | 2.0 | 0.00 | 0.00 | 0.00 | 60 | 1003.7 |
| 20260508013355 | 50 | 0 | 0.0 | 2.0 | 0.00 | 0.00 | 0.00 | 58 | 1003.8 |
| 20260508012855 | 51 | 0 | 0.0 | 2.0 | 0.00 | 0.00 | 0.00 | 55 | 1003.7 |
| 20260508012355 | 51 | 0 | 0.0 | 2.0 | 0.00 | 0.00 | 0.00 | 54 | 1003.6 |
| 20260508011855 | 51 | 0 | 0.0 | 1.0 | 0.00 | 0.00 | 0.00 | 52 | 1003.6 |
| 20260508011355 | 51 | 0 | 0.0 | 0.0 | 0.00 | 0.00 | 0.00 | 52 | 1003.4 |
| 20260508010814 | 51 | 0 | 0.0 | 5.0 | 0.00 | 0.00 | 0.00 | 50 | 1003.2 |
| 20260508005735 | 51 | 0 | 0.0 | 0.0 | 0.00 | 0.00 | 0.00 | 50 | 1003.1 |
| 20260508005235 | 52 | 0 | 0.0 | 0.0 | 0.00 | 0.00 | 0.00 | 50 | 1003.1 |
| 20260508004735 | 52 | 0 | 0.0 | 0.0 | 0.00 | 0.00 | 0.00 | 50 | 1003.0 |
| 20260508004235 | 52 | 0 | 0.0 | 0.0 | 0.00 | 0.00 | 0.00 | 49 | 1003.0 |
| 20260508003735 | 52 | 0 | 0.0 | 0.0 | 0.00 | 0.00 | 0.00 | 49 | 1003.0 |
| 20260508002735 | 52 | 0 | 0.0 | 0.0 | 0.00 | 0.00 | 0.00 | 48 | 1003.0 |
| 20260508001735 | 52 | 0 | 0.0 | 0.0 | 0.00 | 0.00 | 0.00 | 49 | 1003.0 |
| 20260508000735 | 52 | 0 | 0.0 | 0.0 | 0.00 | 0.00 | 0.00 | 49 | 1002.9 |
| 20260508000235 | 52 | 0 | 0.0 | 0.0 | 0.00 | 0.00 | 0.00 | 48 | 1003.0 |
| 20260507235735 | 53 | 0 | 0.0 | 0.0 | 0.00 | 0.00 | 0.00 | 48 | 1003.0 |
| 20260507235235 | 53 | 0 | 0.0 | 0.0 | 0.00 | 0.00 | 0.00 | 47 | 1002.9 |
| 20260507234735 | 53 | 0 | 0.0 | 0.0 | 0.00 | 0.00 | 0.00 | 46 | 1002.9 |
| 20260507233632 | 53 | 0 | 0.0 | 0.0 | 0.00 | 0.00 | 0.00 | 46 | 1003.0 |
| 20260507233132 | 53 | 0 | 0.0 | 0.0 | 0.00 | 0.00 | 0.00 | 45 | 1002.9 |
| 20260507232632 | 53 | 0 | 0.0 | 0.0 | 0.00 | 0.00 | 0.00 | 45 | 1002.9 |
| 20260507232132 | 53 | 0 | 0.0 | 0.0 | 0.00 | 0.00 | 0.00 | 46 | 1003.0 |
| 20260507231632 | 53 | 0 | 0.0 | 0.0 | 0.00 | 0.00 | 0.00 | 46 | 1003.0 |
| 20260507230632 | 53 | 0 | 0.0 | 0.0 | 0.00 | 0.00 | 0.00 | 45 | 1003.1 |
| 20260507225632 | 53 | 0 | 0.0 | 0.0 | 0.00 | 0.00 | 0.00 | 45 | 1003.2 |
| 20260507225132 | 53 | 0 | 0.0 | 1.0 | 0.00 | 0.00 | 0.00 | 45 | 1003.2 |
| 20260507224632 | 54 | 0 | 0.0 | 1.0 | 0.00 | 0.00 | 0.00 | 46 | 1003.2 |
| 20260507223448 | 54 | 0 | 0.0 | 1.0 | 0.00 | 0.00 | 0.00 | 44 | 1003.2 |
| 20260507222949 | 54 | 0 | 0.0 | 1.0 | 0.00 | 0.00 | 0.00 | 45 | 1003.2 |
| 20260507222448 | 53 | 0 | 0.0 | 1.0 | 0.00 | 0.00 | 0.00 | 45 | 1003.2 |
| 20260507221815 | 54 | 0 | 0.0 | 1.0 | 0.00 | 0.00 | 0.00 | 44 | 1003.2 |
| 20260507221448 | 54 | 0 | 0.0 | 1.0 | 0.00 | 0.00 | 0.00 | 44 | 1003.2 |
| 20260507220949 | 54 | 0 | 0.0 | 2.0 | 0.00 | 0.00 | 0.00 | 45 | 1003.1 |
| 20260507220448 | 54 | 0 | 0.0 | 2.0 | 0.00 | 0.00 | 0.00 | 45 | 1003.3 |
| 20260507215948 | 54 | 0 | 0.0 | 2.0 | 0.00 | 0.00 | 0.00 | 45 | 1003.4 |
| 20260507215448 | 53 | 0 | 0.0 | 2.0 | 0.00 | 0.00 | 0.00 | 44 | 1003.3 |
| 20260507214948 | 53 | 0 | 0.0 | 3.0 | 0.00 | 0.00 | 0.00 | 45 | 1003.4 |
| 20260507214448 | 53 | 0 | 0.0 | 3.0 | 0.00 | 0.00 | 0.00 | 44 | 1003.4 |
| 20260507213948 | 53 | 0 | 0.0 | 2.0 | 0.00 | 0.00 | 0.00 | 44 | 1003.3 |
| 20260507213448 | 54 | 0 | 0.0 | 1.0 | 0.00 | 0.00 | 0.00 | 45 | 1003.4 |
| 20260507212948 | 54 | 0 | 0.0 | 0.0 | 0.00 | 0.00 | 0.00 | 45 | 1003.4 |
| 20260507212448 | 54 | 0 | 0.0 | 4.0 | 0.00 | 0.00 | 0.00 | 44 | 1003.4 |
| 20260507211948 | 53 | 0 | 0.0 | 4.0 | 0.00 | 0.00 | 0.00 | 45 | 1003.3 |
| 20260507211448 | 53 | 0 | 0.0 | 2.0 | 0.00 | 0.00 | 0.00 | 44 | 1003.4 |
| 20260507210448 | 53 | 0 | 0.0 | 2.0 | 0.00 | 0.00 | 0.00 | 44 | 1003.3 |